Hauptseite
METAR-TAF:

METAR-TAF

Flughäfen :

Nancy, Frankreich

Breite: 48-41N, Länge: 006-13E, Höhe: 225 m

Beobachtung

Neuester Wetterbericht von vor 32 Minuten, um 19:30 UTC
Wind 6 kt aus West/Nordwest, variierte zwischen West/Südwest und Nordwest
Temperatur 9°C
Luftfeuchtigkeit 87%
Luftdruck 1018 hPa
Sichtweite 10 km oder mehr
Durchbrochene Bewölkung in der Höhe von 2600 ft
Geschlossene Wolkendecke in der Höhe von 4000 ft

METAR: LFSN 221930Z AUTO 29006KT 240V320 9999 BKN026 OVC040 09/07 Q1018

Zeit: 21:02 (20:02 UTC)


TAF: fehlend

Wetterbeobachtungen und Prognosen von mehr als 4000 Flughäfen (METAR und TAF Bericht).

Die verfügbaren Stationen werden durch gelbe und rote Markierungen auf der Karte dargestellt.

Führen Sie die Maus auf sie, um den Namen der Station zu sehen.

Darauf klicken, um die Beobachtung von Wetterbeobachtungen und Prognosen zu sehen.

Um die Karte zu ändern : klicken Sie auf den grünen Tasten mit einem schwarzen Kreuz Zum Vergrößern, auf den grünen Button mit einem Gedankenstrich zu verkleinern, oder auf die grünen Pfeile für benachbarte Karten.


METAR-TAF: